Flag for Germany Weather past 2 weeks in Detmold, North Rhine-Westphalia, Germany

Now
49 °F

Drizzle. Overcast.


Feels Like: 45 °F
Forecast: 47 / 50 °F
Wind: 12 mph from West

Location: Bad Lippspringe

Current Time: Dec 22, 2014 at 1:13:49 PM

Latest Report: Dec 22, 2014 at 1:00 PM


Visibility: 19 mi

Pressure: 29.99 "Hg

Humidity: 83%

Dew point: 44 °F

Location of DetmoldLocation

Historic Weather in Detmold — Graph

°F

Detmold temperature yesterday

Maximum temperature yesterday: 45 °F (at 11:00 PM)
Minimum temperature yesterday: 38 °F (at 12:00 AM)
Average temperature yesterday: 41 °F

Past Weeks' High & Low Weather Summary

 TemperatureHumidityPressure
High53 °F (Dec 18, 8:00 PM)99% (Dec 17, 5:00 PM)30.39 "Hg (Dec 17, 5:00 PM)
Low34 °F (Dec 9, 11:00 PM)60% (Dec 7, 3:00 PM)29.54 "Hg (Dec 12, 9:00 AM)
Average42 °F87%29.98 "Hg
* Reported Dec 7 12:00 Noon — Dec 22 12:00 Noon, Detmold, Weather by CustomWeather, © 2014

Note: Actual official high and low records may vary slightly from our data, if they occured in-between our weather recording intervals... More about our weather records

Advertising

Detmold weather history for previous 24 hours

 ConditionsComfort  
Time TempWeatherWind HumidityBarometerVisibility
12:00 PM
Dec 22
49 °FOvercast.12 mph84%30.01 "Hg25 mi
11:00 AM49 °FOvercast.12 mph85%30.02 "Hg28 mi
10:00 AM48 °FOvercast.12 mph86%30.03 "Hg31 mi
9:00 AM48 °FDrizzle. Overcast.12 mph87%30.03 "Hg17 mi
8:00 AM47 °FDrizzle. Overcast.10 mph90%30.02 "Hg14 mi
7:00 AM47 °FDrizzle. Overcast.12 mph90%30.03 "Hg13 mi
6:00 AM47 °FOvercast.9 mph87%30.04 "Hg22 mi
5:00 AM47 °FOvercast.10 mph87%30.05 "Hg22 mi
4:00 AM47 °FDrizzle. Overcast.10 mph86%30.08 "Hg22 mi
3:00 AM47 °FOvercast.12 mph86%30.09 "HgN/A
2:00 AM46 °FDrizzle. Overcast.10 mph86%30.09 "Hg19 mi
1:00 AM46 °FOvercast.10 mph89%30.13 "Hg18 mi
12:00 AM45 °FDrizzle. Low clouds.10 mph93%30.15 "Hg7 mi
11:00 PM
Dec 21
45 °FDrizzle. Low clouds.9 mph94%30.15 "Hg7 mi
10:00 PM44 °FDrizzle. Low clouds.8 mph95%30.17 "Hg7 mi
9:00 PM44 °FDrizzle. Low clouds.7 mph95%30.19 "Hg7 mi
8:00 PM43 °FDrizzle. Low clouds.8 mph96%30.20 "Hg3 mi
7:00 PM43 °FDrizzle. Low clouds.7 mph95%30.21 "Hg2 mi
6:00 PM42 °FLight freezing rain. Low clouds.6 mph96%30.21 "Hg3 mi
5:00 PM42 °FDrizzle. Overcast.3 mph93%30.23 "Hg6 mi
4:00 PM42 °FDrizzle. Overcast.7 mph90%30.26 "Hg7 mi
3:00 PM44 °FDrizzle. Overcast.8 mph78%30.27 "Hg25 mi
2:00 PM44 °FOvercast.8 mph79%30.29 "Hg25 mi
1:00 PM43 °FOvercast.8 mph84%30.32 "Hg13 mi
Weather by CustomWeather, © 2014

See weather overviewHow to use our weather pages